530  
ASUS41 KOKX 140808  
RWROKX  
 
REGIONAL WEATHER ROUNDUP  
NATIONAL WEATHER SERVICE NEW YORK NY  
300 AM EST THU DEC 14 2017  
 
NOTE: "FAIR" INDICATES FEW OR NO CLOUDS BELOW 12,000 FEET WITH NO  
SIGNIFICANT WEATHER AND/OR S TO VISIBILITY
.  
 
NYZ071-072-176-178-NJZ106-104-140900-  
NEW YORK CITY METRO AREA  
 
CITY SKY/WX TMP DP RH WIND PRES REMARKS
 
CENTRAL PARK LGT SNOW 25 22 88 CALM 29.60F FOG  
BRONX BOT GARD N/A 25 23 93 CALM 29.59F  
BRONX LEHMAN C NOT AVBL  
LAGUARDIA APRT LGT SNOW 25 21 85 E5 29.59F FOG WCI 19  
QUEENS COLLEGE NOT AVBL  
KENNEDY INTL LGT SNOW 24 23 96 NE5 29.61F FOG WCI 18  
BREEZY POINT N/A N/A N/A N/A S6 N/A  
BROOKLYN COLL NOT AVBL  
STATEN ISLAND NOT AVBL  
NEWARK/LIBERTY LGT SNOW 24 22 91 CALM 29.60F FOG  
TETERBORO LGT SNOW 24 20 84 CALM 29.59F FOG  

 
 
NYZ177-179-078>081-140900-  
LONG ISLAND NEW YORK  
 
CITY SKY/WX TMP DP RH WIND PRES REMARKS
 
JONES BEACH N/A N/A N/A N/A NE3 N/A  
WANTAGH NOT AVBL  
MATINECOCK PT N/A N/A N/A N/A SE2 N/A  
FARMINGDALE LGT SNOW 23 22 96 NE3 29.60F FOG  
MACARTHUR/ISP LGT SNOW 24 22 91 NE5 29.60F FOG WCI 18  
SHIRLEY LGT SNOW 24 22 91 CALM 29.62F FOG  
MT SINAI HARB N/A N/A N/A N/A S2 N/A  
WESTHAMPTON LGT SNOW 23 17 78 CALM 29.64F  
EAST HAMPTON LGT SNOW 24 20 85 CALM 29.62F  
SOUTHOLD NOT AVBL  
MONTAUK N/A 28 22 78 W7 29.63F WCI 21  

 
 
NYZ052-065-067-140900-  
HUDSON VALLEY  
 
CITY SKY/WX TMP DP RH WIND PRES REMARKS
 
WHITE PLAINS LGT SNOW 21 19 92 CALM 29.57F VSB 1  
LARCHMONT HARB N/A N/A N/A N/A NW3 N/A  
CROTON ON HUDS N/A N/A N/A N/A CALM N/A  
SOMERS NOT AVBL  
BREWSTER NOT AVBL  
NEWBURGH NOT AVBL  
MONTGOMERY LGT SNOW 21 18 88 CALM 29.56F FOG  
OTISVILLE NOT AVBL  
WARWICK NOT AVBL  
SUFFERN NOT AVBL  
POUGHKEEPSIE LGT SNOW 21 17 84 SE3 29.59F FOG  
ALBANY CLOUDY 20 6 55 CALM 29.59F  

 
 
NJZ001-105-106-008-010-013-015-019>022-104-140900-  
NEW JERSEY  
 
CITY SKY/WX TMP DP RH WIND PRES REMARKS
 
NEWARK/LIBERTY LGT SNOW 24 22 91 CALM 29.60F FOG  
TETERBORO LGT SNOW 24 20 84 CALM 29.59F FOG  
CALDWELL LGT SNOW 22 21 96 CALM 29.60F FOG  
SOMERVILLE CLOUDY 23 21 92 N3 29.57S  
LINDEN MIX PCPN 24 22 90 CALM 29.60F  
PERTH AMBOY N/A N/A N/A N/A E5 N/A  
SUSSEX LGT SNOW 21 19 92 CALM 29.54F FOG  
ANDOVER NOT AVBL  
TRENTON CLOUDY 25 23 92 E5 29.56F WCI 19  
MILLVILLE CLOUDY 34 30 85 VRB5 29.54F WCI 30  
ATLANTIC CITY CLOUDY 35 29 78 S8 29.55F WCI 29  
WRIGHTSTOWN CLOUDY 26 24 92 SE3 29.52F  
TOMS RIVER CLOUDY 26 23 88 CALM 29.56F  
BELMAR FLURRIES 24 22 91 CALM 29.58F  

 
 
PAZ047>061-062-071-140900-  
EASTERN PENNSYLVANIA  
 
CITY SKY/WX TMP DP RH WIND PRES REMARKS
 
PHILADELPHIA CLOUDY 29 25 85 E3 29.55F  
ALLENTOWN CLOUDY 23 18 81 E7 29.54F WCI 15  
SCRANTON LGT SNOW 20 17 88 NE5 29.48F FOG WCI 13  

 
 
CTZ002-004>006-009-010-012-RIZ004-006-007-MAZ004-011-015-140900-  
SOUTHERN NEW ENGLAND  
IN CT  
 
CITY SKY/WX TMP DP RH WIND PRES REMARKS
 
BRADLEY INTL FLURRIES 21 14 74 SW5 29.60F WCI 15  
HARTFORD FLURRIES 23 14 68 W3 29.62F  
DANBURY LGT SNOW 22 18 85 CALM 29.58F FOG  
WTRBURY/OXFORD LGT SNOW 19 17 92 S3 29.57F FOG  
NORWALK HARBOR N/A N/A N/A N/A NW6 N/A  
BRIDGEPORT LGT SNOW 23 18 81 N6 29.62F WCI 16  
MERIDEN FLURRIES 21 17 84 S5 29.61F WCI 15  
NEW HAVEN FLURRIES 24 17 74 CALM 29.62F  
CHESTER LGT SNOW 21 18 86 CALM 29.59F  
GROTON LGT SNOW 23 18 81 N6 29.62F WCI 16  
WILIMANTIC LGT SNOW 23 14 68 W3 29.62F  
 
IN RI  
 
CITY SKY/WX TMP DP RH WIND PRES REMARKS
 
PROVIDENCE NOT AVBL  
BLOCK ISLAND LGT SNOW 27 25 92 SW13 29.63F FOG WCI 16  
WESTERLY LGT SNOW 24 18 77 CALM 29.64F  
IN MA  
 
CITY SKY/WX TMP DP RH WIND PRES REMARKS
 
BOSTON CLOUDY 23 8 52 W16 29.61R WCI 10  
WORCESTER CLOUDY 16 5 62 SW12 29.54F WCI 3  
WESTFIELD MOCLDY 20 9 62 SW3 29.59F  
PROVINCETOWN MOCLDY 25 13 60 W22G28 29.62 WCI 10  
NANTUCKET CLOUDY 30 18 60 W15G25 29.63S WCI 19  

 
 
ANZ330-335-338-340-345-350-353-355-140900-  
COASTAL MARINE OBSERVATIONS  
 
 
STATION/POSITION TIME SKY/WX TEMP WIND PRES VSBY WAVE
 
AIR SEA DIR/SP/G HT/PER  
(UTC) (F) (DEG/KT/KT) (MB) (MI) (FT/S)  
NY HARB ENTRANCE 0750 34 52 220/ 14/ 17 1001.6 2/ 4  
20 S FIRE ISLAND 0650 32 51 250/ 16/ 19 1003.5 6/ 6  
GREAT SOUTH BAY 0700 24 45 320/ 8/ 10 N/A  
HUDSON CANYON 0750 41 56 230/ 19/ 25 1002.7 7/ 6  
KINGS POINT 0730 23 43 170/ 3/ 5 1003.5  
EXECUTION ROCKS 0730 25 130/ 4/ 8 N/A  
WESTERN LI SOUND NOT AVBL  
CENTRAL LI SOUND 0715 27 290/ 12/ 17 N/A 3  
ROBBINS REEF 0724 25 100/ 6/ 7 1003.2  

 
 
>>>>>>>>>>>>>>>>>>>>>>>>>>>> KEY <<<<<<<<<<<<<<<<<<<<<<<<<<<  
> <  
> SKY/WX - SKY CONDITION/PRESENT WEATHER <  
> TMP - TEMPERATURE IN FAHRENHEIT <  
> DP - DEW POINT IN FAHRENHEIT <  
> RH - RELATIVE HUMIDITY IN PERCENT <  
> WIND - DIRECTION (FROM) AND SPEED IN MPH <  
> PRES - MEAN SEA LEVEL PRESSURE (INCHES OF HG) <  
> WCI - WIND CHILL INDEX <  
> VSB - VISIBILITY IN MILES <  
> HX - HEAT INDEX <  
> TC - TEMPERATURE IN CELSIUS <  
> VRB - VARIABLE WIND DIRECTION <  
> <  
>>>>>>>>>>>>>>>>>>>>>>>>>>>> KEY <<<<<<<<<<<<<<<<<<<<<<<<<<<  
 
 
CLICK HERE TO GO TO PREVIOUS BULLETINS.

The Nexlab NY Page
The Nexlab NJ Page
The Nexlab CT Page Main Text Page